Regional Weather Roundup
Issued by NWS

Home | Current Version | Previous Version | Graphics & Text | Print | Product List | Glossary On
Versions: 1 2 3 4 5 6 7 8 9 10 11 12 13 14 15 16 17 18 19 20 21 22 23 24 25 26 27 28 29 30 31 32 33 34 35 36 37 38 39 40 41 42 43 44 45 46 47 48 49 50
000
ASUS43 KFSD 190102
RWRSD

WEATHER ROUNDUP FOR SOUTH DAKOTA
NATIONAL WEATHER SERVICE SIOUX FALLS SD
800 PM CDT WED APR 18 2018

NOTE: "FAIR" INDICATES FEW OR NO CLOUDS BELOW 12,000 FEET WITH NO
SIGNIFICANT WEATHER AND/OR OBSTRUCTIONS TO VISIBILITY.


SDZ001>005-009-010-012>017-190200-
NORTHWEST AND NORTH CENTRAL SOUTH DAKOTA

CITY           SKY/WX    TMP DP  RH WIND       PRES   REMARKS
BUFFALO          N/A     51  31  46 NE10      30.15R
FAITH            N/A     48  37  65 NE9       30.21R
MOBRIDGE       PTCLDY    48  27  44 NE8       30.21R
$$

SDZ012>016-024>037-041>051-057-063-072>074-190200-
SOUTHWEST AND SOUTH CENTRAL SOUTH DAKOTA

CITY           SKY/WX    TMP DP  RH WIND       PRES   REMARKS
RAPID CTY ARPT MOCLDY    50  30  46 N9        30.21R
PIERRE         PTCLDY    45  35  68 NW9       30.22R
CUSTER         CLEAR     42  15  33 N6        30.21R
ELLSWORTH AFB  PTCLDY    52  28  39 N13       30.20R
PHILIP         CLEAR     49  36  61 NE10      30.22R
PINE RIDGE     PTCLDY    53  24  32 N12       30.20R
SPEARFISH      FAIR      46  23  39 W6        30.22S
WINNER         FAIR      38  32  79 W7        30.23R
$$

SDZ004>011-016>023-039-040-190200-
NORTHEAST SOUTH DAKOTA

CITY           SKY/WX    TMP DP  RH WIND       PRES   REMARKS
ABERDEEN       MOCLDY    43  31  62 N9        30.21R
WATERTOWN      PTCLDY    38  30  73 N3        30.16R
BROOKINGS      CLOUDY    36  29  75 NW7       30.16R
SISSETON         N/A     45  30  55 CALM      30.17R
$$

SDZ017-020-022-023-036>040-048>070-190200-
SOUTHEAST SOUTH DAKOTA

CITY           SKY/WX    TMP DP  RH WIND       PRES   REMARKS
SIOUX FALLS    CLOUDY    34  30  85 W3        30.17R
HURON          CLOUDY    40  30  67 N9        30.19R
CHAMBERLAIN    PTCLDY    41  39  93 NW8       30.21R
MITCHELL       CLOUDY    38  32  79 NW13      30.19R
YANKTON        CLOUDY    36  34  93 N12       30.19R
$$

ABBREVIATIONS USED IN REMARKS
   TC - TEMPERATURE IN CELSIUS
  WCI - WIND CHILL INDEX
   HX - HEAT INDEX
  VSB - VISIBILITY





USA.gov is the U.S. government's official web portal to all federal, state and local government web resources and services.